Weather in Esfahan

Iran     32°39′38″N   51°40′38″E
temp.,
°C
wind,
m/s
gust,
m/s
humid.,
%
clouds,
%
prec.,
mm/h
press.,
hPa
HPBL,
m
21 june, mon
mon2101:30+26sse57130 0.0 1011228
04:30+24sse24140 0.0 1011160
07:30+25e22130 0.0 1012137
10:30+30se3390 0.0 10111057
13:30+34ese1280 0.0 10091819
16:30+36nne3570 0.0 10064455
19:30+33ne9990 0.0 10061196
22:30+29se3580 0.0 1010302
22 june, tue
tue2201:30+26se5962 0.0 1011257
04:30+24sse2380 0.0 1011119
07:30+25e1270 0.0 1013113
10:30+29ese1250 0.0 1012975
13:30+33ese2450 0.0 10092494
16:30+35nne1450 0.0 10074172
19:30+33ne8960 0.0 10081019
22:30+28ese3470 0.0 1010142
23 june, wed
wed2301:30+25se5990 0.0 1012272
04:30+23ese23110 0.0 101283
07:30+24ese12100 0.0 1014115
10:30+29se2270 0.0 10121007
13:30+33se2450 0.0 10102744
16:30+35s2450 0.0 10073649
19:30+34ne4550 0.0 10071179
22:30+28e3470 0.0 1010167
24 june, thu
thu2401:30+26sse2390 0.0 101066
04:30+24ne11110 0.0 101039
07:30+26nnw0190 0.0 101252
10:30+31n0160 0.0 10111028
13:30+34s2450 0.0 10093213
16:30+36ssw3440 0.0 10064177
19:30+34ne7850 0.0 1006845
22:30+29ene4780 0.0 1009191
25 june, fri
fri2501:30+26ssw11100 0.0 101084
04:30+25nw22100 0.0 101015
07:30+26nnw1190 0.0 101284
10:30+31w1170 0.0 10111185
13:30+34sw3550 0.0 10093869
16:30+36ene5450 0.0 10064543
19:30+33ne8960 0.0 10071196
22:30+28e5890 0.0 1010288